| time (UTC) | temp C | wind direction | speed KPH | gust KPH | rain 1hr cm | rain 24hr cm | rain mn cm | humidity % | barometer mb |
| 20260906210251 | 32 | 148 | 27.4 | 40.2 | 0.00 | 0.00 | 0.00 | 40 | 1014.7 |
| 20260906205727 | 32 | 140 | 29.0 | 40.2 | 0.00 | 0.00 | 0.00 | 41 | 1014.7 |
| 20260906205227 | 32 | 135 | 25.7 | 40.2 | 0.00 | 0.00 | 0.00 | 40 | 1014.8 |
| 20260906204744 | 32 | 172 | 14.5 | 41.8 | 0.00 | 0.00 | 0.00 | 40 | 1014.8 |
| 20260906204219 | 32 | 182 | 25.7 | 41.8 | 0.00 | 0.00 | 0.00 | 41 | 1015.0 |
| 20260906203735 | 32 | 160 | 30.6 | 40.2 | 0.00 | 0.00 | 0.00 | 40 | 1015.0 |
| 20260906203251 | 32 | 155 | 22.5 | 41.8 | 0.00 | 0.00 | 0.00 | 41 | 1015.1 |
| 20260906202747 | 32 | 144 | 24.1 | 46.7 | 0.00 | 0.00 | 0.00 | 41 | 1015.1 |
| 20260906202223 | 32 | 146 | 32.2 | 46.7 | 0.00 | 0.00 | 0.00 | 41 | 1015.2 |
| 20260906201720 | 32 | 169 | 20.9 | 40.2 | 0.00 | 0.00 | 0.00 | 41 | 1015.2 |
| 20260906201217 | 32 | 151 | 29.0 | 38.6 | 0.00 | 0.00 | 0.00 | 41 | 1015.3 |
| 20260906200718 | 32 | 141 | 19.3 | 37.0 | 0.00 | 0.00 | 0.00 | 40 | 1015.2 |
| 20260906200215 | 32 | 136 | 20.9 | 45.1 | 0.00 | 0.00 | 0.00 | 41 | 1015.3 |
| 20260906195732 | 32 | 142 | 32.2 | 45.1 | 0.00 | 0.00 | 0.00 | 42 | 1015.2 |
| 20260906195228 | 32 | 131 | 17.7 | 43.5 | 0.00 | 0.00 | 0.00 | 43 | 1015.1 |
| 20260906194724 | 32 | 140 | 25.7 | 43.5 | 0.00 | 0.00 | 0.00 | 43 | 1015.2 |
| 20260906194221 | 32 | 167 | 30.6 | 43.5 | 0.00 | 0.00 | 0.00 | 41 | 1015.4 |
| 20260906193738 | 32 | 173 | 20.9 | 43.5 | 0.00 | 0.00 | 0.00 | 42 | 1015.3 |
| 20260906193214 | 32 | 120 | 30.6 | 40.2 | 0.00 | 0.00 | 0.00 | 44 | 1015.4 |
| 20260906192715 | 32 | 144 | 24.1 | 35.4 | 0.00 | 0.00 | 0.00 | 44 | 1015.4 |
| 20260906192212 | 32 | 137 | 29.0 | 40.2 | 0.00 | 0.00 | 0.00 | 44 | 1015.5 |
| 20260906191749 | 31 | 132 | 25.7 | 43.5 | 0.00 | 0.00 | 0.00 | 44 | 1015.6 |
| 20260906191225 | 31 | 135 | 27.4 | 43.5 | 0.00 | 0.00 | 0.00 | 42 | 1015.7 |
| 20260906190742 | 31 | 130 | 24.1 | 35.4 | 0.00 | 0.00 | 0.00 | 44 | 1015.8 |
| 20260906190238 | 31 | 132 | 24.1 | 40.2 | 0.00 | 0.00 | 0.00 | 45 | 1015.9 |
| 20260906185713 | 31 | 127 | 25.7 | 40.2 | 0.00 | 0.00 | 0.00 | 45 | 1015.9 |
| 20260906185230 | 31 | 154 | 20.9 | 35.4 | 0.00 | 0.00 | 0.00 | 46 | 1016.0 |
| 20260906184727 | 31 | 134 | 19.3 | 35.4 | 0.00 | 0.00 | 0.00 | 46 | 1016.2 |
| 20260906184223 | 31 | 148 | 22.5 | 32.2 | 0.00 | 0.00 | 0.00 | 46 | 1016.3 |
| 20260906183725 | 30 | 140 | 24.1 | 33.8 | 0.00 | 0.00 | 0.00 | 47 | 1016.4 |
| 20260906183220 | 30 | 155 | 19.3 | 32.2 | 0.00 | 0.00 | 0.00 | 46 | 1016.5 |
| 20260906182717 | 30 | 146 | 20.9 | 32.2 | 0.00 | 0.00 | 0.00 | 46 | 1016.5 |
| 20260906182215 | 30 | 128 | 20.9 | 33.8 | 0.00 | 0.00 | 0.00 | 47 | 1016.6 |
| 20260906181712 | 30 | 148 | 19.3 | 33.8 | 0.00 | 0.00 | 0.00 | 47 | 1016.7 |
| 20260906181226 | 30 | 186 | 12.9 | 30.6 | 0.00 | 0.00 | 0.00 | 47 | 1016.8 |
| 20260906180722 | 30 | 184 | 20.9 | 30.6 | 0.00 | 0.00 | 0.00 | 48 | 1016.9 |
| 20260906180223 | 29 | 138 | 17.7 | 29.0 | 0.00 | 0.00 | 0.00 | 49 | 1017.0 |
| 20260906175720 | 29 | 155 | 17.7 | 29.0 | 0.00 | 0.00 | 0.00 | 50 | 1017.2 |
| 20260906175216 | 29 | 164 | 19.3 | 27.4 | 0.00 | 0.00 | 0.00 | 50 | 1017.2 |
| 20260906174714 | 29 | 155 | 19.3 | 25.7 | 0.00 | 0.00 | 0.00 | 51 | 1017.3 |
| 20260906174210 | 29 | 202 | 16.1 | 32.2 | 0.00 | 0.00 | 0.00 | 50 | 1017.5 |
| 20260906173748 | 29 | 163 | 20.9 | 32.2 | 0.00 | 0.00 | 0.00 | 51 | 1017.5 |
| 20260906173224 | 28 | 155 | 8.0 | 25.7 | 0.00 | 0.00 | 0.00 | 52 | 1017.5 |
| 20260906172719 | 28 | 136 | 14.5 | 25.7 | 0.00 | 0.00 | 0.00 | 53 | 1017.5 |
| 20260906172221 | 28 | 128 | 16.1 | 27.4 | 0.00 | 0.00 | 0.00 | 54 | 1017.7 |
| 20260906171718 | 28 | 128 | 17.7 | 27.4 | 0.00 | 0.00 | 0.00 | 54 | 1017.7 |
| 20260906171215 | 27 | 157 | 17.7 | 27.4 | 0.00 | 0.00 | 0.00 | 55 | 1017.7 |
| 20260906170712 | 27 | 123 | 19.3 | 27.4 | 0.00 | 0.00 | 0.00 | 56 | 1017.7 |
| 20260906170249 | 27 | 161 | 17.7 | 25.7 | 0.00 | 0.00 | 0.00 | 56 | 1017.8 |
| 20260906165724 | 27 | 139 | 12.9 | 25.7 | 0.00 | 0.00 | 0.00 | 56 | 1017.8 |
| 20260906165241 | 27 | 148 | 12.9 | 25.7 | 0.00 | 0.00 | 0.00 | 57 | 1017.9 |
| 20260906164716 | 27 | 148 | 16.1 | 27.4 | 0.00 | 0.00 | 0.00 | 58 | 1017.9 |
| 20260906164234 | 27 | 137 | 20.9 | 27.4 | 0.00 | 0.00 | 0.00 | 59 | 1018.0 |
| 20260906163714 | 26 | 109 | 14.5 | 27.4 | 0.00 | 0.00 | 0.00 | 60 | 1018.0 |
| 20260906163231 | 26 | 148 | 16.1 | 25.7 | 0.00 | 0.00 | 0.00 | 61 | 1018.1 |
| 20260906162726 | 26 | 146 | 19.3 | 29.0 | 0.00 | 0.00 | 0.00 | 61 | 1018.2 |
| 20260906162224 | 25 | 135 | 19.3 | 29.0 | 0.00 | 0.00 | 0.00 | 64 | 1018.2 |
| 20260906161741 | 25 | 145 | 14.5 | 27.4 | 0.00 | 0.00 | 0.00 | 67 | 1018.3 |
| 20260906161236 | 25 | 119 | 16.1 | 25.7 | 0.00 | 0.00 | 0.00 | 68 | 1018.3 |
| 20260906160712 | 24 | 165 | 16.1 | 27.4 | 0.00 | 0.00 | 0.00 | 69 | 1018.2 |
| 20260906160229 | 24 | 134 | 20.9 | 29.0 | 0.00 | 0.00 | 0.00 | 69 | 1018.2 |
| 20260906155731 | 24 | 152 | 20.9 | 29.0 | 0.00 | 0.00 | 0.00 | 70 | 1018.1 |
| 20260906155227 | 23 | 130 | 19.3 | 29.0 | 0.00 | 0.00 | 0.00 | 72 | 1018.1 |
| 20260906154723 | 23 | 148 | 22.5 | 29.0 | 0.00 | 0.00 | 0.00 | 73 | 1018.0 |
| 20260906154220 | 23 | 130 | 17.7 | 27.4 | 0.00 | 0.00 | 0.00 | 75 | 1018.0 |
| 20260906153718 | 22 | 145 | 19.3 | 29.0 | 0.00 | 0.00 | 0.00 | 77 | 1018.0 |
| 20260906153215 | 22 | 129 | 22.5 | 29.0 | 0.00 | 0.00 | 0.00 | 78 | 1017.9 |
| 20260906152731 | 22 | 130 | 22.5 | 27.4 | 0.00 | 0.00 | 0.00 | 81 | 1017.9 |
| 20260906152211 | 21 | 142 | 20.9 | 27.4 | 0.00 | 0.00 | 0.00 | 83 | 1018.0 |
| 20260906151728 | 20 | 152 | 20.9 | 27.4 | 0.00 | 0.00 | 0.00 | 86 | 1018.0 |
| 20260906151245 | 20 | 150 | 19.3 | 24.1 | 0.00 | 0.00 | 0.00 | 89 | 1017.9 |
| 20260906150720 | 20 | 134 | 12.9 | 22.5 | 0.00 | 0.00 | 0.00 | 90 | 1018.0 |
| 20260906150238 | 19 | 127 | 12.9 | 22.5 | 0.00 | 0.00 | 0.00 | 92 | 1018.0 |
| 20260906145734 | 18 | 118 | 16.1 | 20.9 | 0.00 | 0.00 | 0.00 | 92 | 1018.0 |
| 20260906145230 | 18 | 136 | 12.9 | 17.7 | 0.00 | 0.00 | 0.00 | 92 | 1017.9 |
| 20260906144726 | 18 | 360 | 14.5 | 22.5 | 0.00 | 0.00 | 0.00 | 93 | 1018.0 |
| 20260906144223 | 18 | 360 | 14.5 | 22.5 | 0.00 | 0.00 | 0.00 | 93 | 1017.9 |
| 20260906143740 | 18 | 360 | 16.1 | 20.9 | 0.00 | 0.00 | 0.00 | 93 | 1017.8 |
| 20260906143220 | 17 | 360 | 17.7 | 20.9 | 0.00 | 0.00 | 0.00 | 93 | 1017.9 |
| 20260906142715 | 17 | 360 | 14.5 | 20.9 | 0.00 | 0.00 | 0.00 | 93 | 1017.8 |
| 20260906142212 | 17 | 360 | 16.1 | 20.9 | 0.00 | 0.00 | 0.00 | 93 | 1017.9 |
| 20260906141750 | 17 | 360 | 14.5 | 17.7 | 0.00 | 0.00 | 0.00 | 93 | 1017.9 |
| 20260906141225 | 17 | 360 | 11.3 | 16.1 | 0.00 | 0.00 | 0.00 | 93 | 1018.0 |
| 20260906140722 | 17 | 360 | 11.3 | 16.1 | 0.00 | 0.00 | 0.00 | 93 | 1018.0 |
| 20260906140219 | 17 | 360 | 12.9 | 16.1 | 0.00 | 0.00 | 0.00 | 93 | 1017.9 |
| 20260906135721 | 17 | 360 | 11.3 | 17.7 | 0.00 | 0.00 | 0.00 | 93 | 1017.8 |
| 20260906135218 | 17 | 360 | 9.7 | 17.7 | 0.00 | 0.00 | 0.00 | 93 | 1017.8 |
| 20260906134715 | 17 | 360 | 11.3 | 17.7 | 0.00 | 0.00 | 0.00 | 93 | 1017.7 |
| 20260906134251 | 17 | 360 | 12.9 | 17.7 | 0.00 | 0.00 | 0.00 | 93 | 1017.7 |
| 20260906133727 | 17 | 360 | 14.5 | 19.3 | 0.00 | 0.00 | 0.00 | 93 | 1017.7 |
| 20260906133223 | 17 | 360 | 12.9 | 19.3 | 0.00 | 0.00 | 0.00 | 93 | 1017.7 |
| 20260906132719 | 17 | 360 | 16.1 | 19.3 | 0.00 | 0.00 | 0.00 | 93 | 1017.6 |
| 20260906132216 | 17 | 360 | 16.1 | 19.3 | 0.00 | 0.00 | 0.00 | 93 | 1017.6 |
| 20260906131717 | 17 | 360 | 11.3 | 16.1 | 0.00 | 0.00 | 0.00 | 93 | 1017.5 |
| 20260906131214 | 17 | 360 | 12.9 | 17.7 | 0.00 | 0.00 | 0.00 | 93 | 1017.4 |
| 20260906130731 | 17 | 360 | 11.3 | 17.7 | 0.00 | 0.00 | 0.00 | 93 | 1017.2 |
| 20260906130227 | 16 | 360 | 12.9 | 16.1 | 0.00 | 0.00 | 0.00 | 93 | 1017.3 |
| 20260906125723 | 16 | 360 | 12.9 | 17.7 | 0.00 | 0.00 | 0.00 | 93 | 1017.2 |
| 20260906125220 | 16 | 360 | 14.5 | 17.7 | 0.00 | 0.00 | 0.00 | 93 | 1017.2 |
| 20260906124717 | 16 | 360 | 12.9 | 17.7 | 0.00 | 0.00 | 0.00 | 92 | 1017.1 |
| 20260906124218 | 16 | 360 | 14.5 | 17.7 | 0.00 | 0.00 | 0.00 | 92 | 1017.0 |
| 20260906123715 | 16 | 360 | 14.5 | 17.7 | 0.00 | 0.00 | 0.00 | 92 | 1017.0 |
| 20260906123211 | 16 | 360 | 16.1 | 17.7 | 0.00 | 0.00 | 0.00 | 92 | 1017.0 |
| 20260906122729 | 16 | 360 | 12.9 | 19.3 | 0.00 | 0.00 | 0.00 | 92 | 1017.0 |
| 20260906122245 | 16 | 360 | 14.5 | 17.7 | 0.00 | 0.00 | 0.00 | 92 | 1016.9 |
| 20260906121721 | 16 | 360 | 11.3 | 16.1 | 0.00 | 0.00 | 0.00 | 92 | 1016.9 |
| 20260906121238 | 16 | 360 | 9.7 | 14.5 | 0.00 | 0.00 | 0.00 | 92 | 1016.8 |
| 20260906120734 | 16 | 360 | 8.0 | 12.9 | 0.00 | 0.00 | 0.00 | 91 | 1016.7 |
| 20260906120212 | 16 | 360 | 8.0 | 9.7 | 0.00 | 0.00 | 0.00 | 91 | 1016.7 |
| 20260906115709 | 16 | 360 | 8.0 | 8.0 | 0.00 | 0.00 | 0.00 | 91 | 1016.6 |
| 20260906115227 | 16 | 360 | 4.8 | 8.0 | 0.00 | 0.00 | 0.00 | 91 | 1016.8 |
| 20260906114723 | 16 | 360 | 4.8 | 8.0 | 0.00 | 0.00 | 0.00 | 91 | 1016.7 |
| 20260906114221 | 16 | 360 | 6.4 | 8.0 | 0.00 | 0.00 | 0.00 | 91 | 1016.7 |
| 20260906113718 | 16 | 360 | 4.8 | 6.4 | 0.00 | 0.00 | 0.00 | 91 | 1016.5 |
| 20260906113215 | 16 | 360 | 4.8 | 6.4 | 0.00 | 0.00 | 0.00 | 91 | 1016.6 |
| 20260906112711 | 16 | 360 | 6.4 | 8.0 | 0.00 | 0.00 | 0.00 | 91 | 1016.7 |
| 20260906112210 | 16 | 360 | 4.8 | 12.9 | 0.00 | 0.00 | 0.00 | 91 | 1016.6 |
| 20260906111728 | 16 | 360 | 8.0 | 12.9 | 0.00 | 0.00 | 0.00 | 91 | 1016.5 |
| 20260906111223 | 16 | 360 | 6.4 | 16.1 | 0.00 | 0.00 | 0.00 | 91 | 1016.6 |
| 20260906110719 | 16 | 360 | 9.7 | 16.1 | 0.00 | 0.00 | 0.00 | 91 | 1016.5 |
| 20260906110216 | 16 | 360 | 12.9 | 16.1 | 0.00 | 0.00 | 0.00 | 91 | 1016.4 |
| 20260906105713 | 16 | 360 | 9.7 | 16.1 | 0.00 | 0.00 | 0.00 | 91 | 1016.4 |
| 20260906105209 | 16 | 360 | 12.9 | 16.1 | 0.00 | 0.00 | 0.00 | 91 | 1016.5 |
| 20260906104747 | 16 | 360 | 11.3 | 16.1 | 0.00 | 0.00 | 0.00 | 90 | 1016.7 |
| 20260906104223 | 16 | 360 | 12.9 | 14.5 | 0.00 | 0.00 | 0.00 | 90 | 1016.6 |
| 20260906103722 | 16 | 360 | 11.3 | 14.5 | 0.00 | 0.00 | 0.00 | 90 | 1016.5 |
| 20260906103218 | 16 | 360 | 9.7 | 16.1 | 0.00 | 0.00 | 0.00 | 90 | 1016.6 |
| 20260906102735 | 17 | 360 | 11.3 | 14.5 | 0.00 | 0.00 | 0.00 | 90 | 1016.8 |
| 20260906102212 | 17 | 360 | 9.7 | 16.1 | 0.00 | 0.00 | 0.00 | 89 | 1016.8 |
| 20260906101750 | 17 | 360 | 9.7 | 17.7 | 0.00 | 0.00 | 0.00 | 89 | 1016.9 |
| 20260906101225 | 17 | 360 | 14.5 | 17.7 | 0.00 | 0.00 | 0.00 | 89 | 1017.0 |
| 20260906100722 | 17 | 360 | 16.1 | 17.7 | 0.00 | 0.00 | 0.00 | 89 | 1016.9 |
| 20260906100219 | 17 | 360 | 12.9 | 14.5 | 0.00 | 0.00 | 0.00 | 89 | 1017.0 |
| 20260906095716 | 17 | 360 | 12.9 | 16.1 | 0.00 | 0.00 | 0.00 | 88 | 1017.0 |
| 20260906095237 | 17 | 360 | 11.3 | 16.1 | 0.00 | 0.00 | 0.00 | 88 | 1017.3 |
| 20260906094713 | 17 | 360 | 12.9 | 17.7 | 0.00 | 0.00 | 0.00 | 88 | 1017.3 |
| 20260906094209 | 17 | 360 | 12.9 | 17.7 | 0.00 | 0.00 | 0.00 | 88 | 1017.2 |
| 20260906093726 | 17 | 360 | 14.5 | 17.7 | 0.00 | 0.00 | 0.00 | 88 | 1017.2 |
| 20260906093222 | 17 | 360 | 14.5 | 16.1 | 0.00 | 0.00 | 0.00 | 88 | 1017.3 |
| 20260906092738 | 18 | 360 | 12.9 | 20.9 | 0.00 | 0.00 | 0.00 | 87 | 1017.4 |
| 20260906092214 | 18 | 360 | 16.1 | 20.9 | 0.00 | 0.00 | 0.00 | 87 | 1017.2 |
| 20260906091712 | 18 | 360 | 14.5 | 20.9 | 0.00 | 0.00 | 0.00 | 87 | 1017.2 |
| 20260906091212 | 18 | 360 | 16.1 | 22.5 | 0.00 | 0.00 | 0.00 | 86 | 1017.2 |
| 20260906090728 | 18 | 360 | 17.7 | 22.5 | 0.00 | 0.00 | 0.00 | 86 | 1017.2 |
| 20260906090224 | 18 | 360 | 16.1 | 24.1 | 0.00 | 0.00 | 0.00 | 85 | 1017.1 |
| 20260906085722 | 18 | 360 | 19.3 | 24.1 | 0.00 | 0.00 | 0.00 | 84 | 1017.3 |
| 20260906085218 | 19 | 360 | 17.7 | 24.1 | 0.00 | 0.00 | 0.00 | 83 | 1017.4 |
| 20260906084715 | 19 | 360 | 19.3 | 27.4 | 0.00 | 0.00 | 0.00 | 82 | 1017.3 |
| 20260906084212 | 20 | 360 | 24.1 | 27.4 | 0.00 | 0.00 | 0.00 | 81 | 1017.5 |
| 20260906083710 | 20 | 360 | 16.1 | 19.3 | 0.00 | 0.00 | 0.00 | 79 | 1017.4 |
| 20260906083211 | 20 | 360 | 14.5 | 22.5 | 0.00 | 0.00 | 0.00 | 77 | 1017.3 |
| 20260906082727 | 21 | 360 | 17.7 | 27.4 | 0.00 | 0.00 | 0.00 | 75 | 1017.2 |
| 20260906082225 | 21 | 360 | 20.9 | 32.2 | 0.00 | 0.00 | 0.00 | 72 | 1017.3 |
| 20260906081722 | 22 | 34 | 25.7 | 32.2 | 0.00 | 0.00 | 0.00 | 69 | 1017.3 |
| 20260906081219 | 22 | 52 | 9.7 | 14.5 | 0.00 | 0.00 | 0.00 | 68 | 1017.2 |
| 20260906080735 | 23 | 62 | 8.0 | 12.9 | 0.00 | 0.00 | 0.00 | 67 | 1017.2 |
| 20260906080211 | 22 | 61 | 6.4 | 17.7 | 0.00 | 0.00 | 0.00 | 66 | 1017.4 |
| 20260906075712 | 22 | 26 | 9.7 | 33.8 | 0.00 | 0.00 | 0.00 | 66 | 1017.5 |
| 20260906075229 | 22 | 31 | 20.9 | 33.8 | 0.00 | 0.00 | 0.00 | 67 | 1017.4 |
| 20260906074745 | 21 | 360 | 6.4 | 24.1 | 0.00 | 0.00 | 0.00 | 70 | 1017.0 |
| 20260906074220 | 21 | 360 | 8.0 | 19.3 | 0.00 | 0.00 | 0.00 | 74 | 1016.7 |
| 20260906073738 | 21 | 183 | 11.3 | 19.3 | 0.00 | 0.00 | 0.00 | 76 | 1016.5 |
| 20260906073213 | 21 | 23 | 11.3 | 17.7 | 0.00 | 0.00 | 0.00 | 75 | 1016.2 |
| 20260906072709 | 21 | 15 | 3.2 | 6.4 | 0.00 | 0.00 | 0.00 | 75 | 1015.9 |
| 20260906072246 | 21 | 200 | 3.2 | 8.0 | 0.00 | 0.00 | 0.00 | 75 | 1015.5 |
| 20260906071722 | 21 | 230 | 0.0 | 6.4 | 0.00 | 0.00 | 0.00 | 75 | 1015.5 |
| 20260906071224 | 21 | 360 | 3.2 | 6.4 | 0.00 | 0.00 | 0.00 | 75 | 1015.5 |
| 20260906070720 | 21 | 360 | 3.2 | 9.7 | 0.00 | 0.00 | 0.00 | 75 | 1015.6 |
| 20260906070216 | 21 | 360 | 3.2 | 9.7 | 0.00 | 0.00 | 0.00 | 75 | 1015.8 |
| 20260906065713 | 21 | 360 | 4.8 | 12.9 | 0.00 | 0.00 | 0.00 | 75 | 1015.9 |
| 20260906065210 | 21 | 360 | 4.8 | 12.9 | 0.00 | 0.00 | 0.00 | 75 | 1015.9 |
| 20260906064726 | 21 | 360 | 6.4 | 12.9 | 0.00 | 0.00 | 0.00 | 75 | 1015.9 |
| 20260906064222 | 21 | 360 | 4.8 | 12.9 | 0.00 | 0.00 | 0.00 | 75 | 1015.9 |
| 20260906063740 | 21 | 229 | 3.2 | 11.3 | 0.00 | 0.00 | 0.00 | 75 | 1015.9 |
| 20260906063236 | 21 | 219 | 6.4 | 12.9 | 0.00 | 0.00 | 0.00 | 74 | 1016.0 |
| 20260906062715 | 21 | 220 | 3.2 | 9.7 | 0.00 | 0.00 | 0.00 | 74 | 1016.0 |
| 20260906062211 | 21 | 218 | 3.2 | 6.4 | 0.00 | 0.00 | 0.00 | 74 | 1016.0 |
| 20260906061729 | 22 | 185 | 1.6 | 6.4 | 0.00 | 0.00 | 0.00 | 74 | 1016.0 |
| 20260906061225 | 22 | 173 | 1.6 | 6.4 | 0.00 | 0.00 | 0.00 | 73 | 1016.0 |
| 20260906060722 | 22 | 195 | 3.2 | 8.0 | 0.00 | 0.00 | 0.00 | 73 | 1016.0 |
| 20260906060219 | 22 | 360 | 1.6 | 9.7 | 0.00 | 0.00 | 0.00 | 73 | 1016.0 |
| 20260906055716 | 22 | 360 | 3.2 | 14.5 | 0.00 | 0.00 | 0.00 | 73 | 1015.9 |
| 20260906055233 | 22 | 360 | 8.0 | 14.5 | 0.00 | 0.00 | 0.00 | 72 | 1015.9 |
| 20260906054712 | 22 | 360 | 4.8 | 14.5 | 0.00 | 0.00 | 0.00 | 72 | 1015.9 |
| 20260906054209 | 22 | 168 | 4.8 | 14.5 | 0.00 | 0.00 | 0.00 | 71 | 1015.8 |
| 20260906053746 | 22 | 360 | 3.2 | 8.0 | 0.00 | 0.00 | 0.00 | 70 | 1015.8 |
| 20260906053221 | 22 | 360 | 1.6 | 8.0 | 0.00 | 0.00 | 0.00 | 69 | 1015.9 |
| 20260906052717 | 23 | 360 | 1.6 | 8.0 | 0.00 | 0.00 | 0.00 | 68 | 1015.8 |
| 20260906052214 | 23 | 360 | 3.2 | 6.4 | 0.00 | 0.00 | 0.00 | 68 | 1015.7 |
| 20260906051711 | 23 | 39 | 0.0 | 3.2 | 0.00 | 0.00 | 0.00 | 68 | 1015.6 |
| 20260906051249 | 23 | 221 | 0.0 | 6.4 | 0.00 | 0.00 | 0.00 | 68 | 1015.7 |
| 20260906050729 | 23 | 152 | 1.6 | 12.9 | 0.00 | 0.00 | 0.00 | 67 | 1015.7 |
| 20260906050224 | 23 | 198 | 6.4 | 12.9 | 0.00 | 0.00 | 0.00 | 67 | 1015.7 |
| 20260906045720 | 23 | 148 | 12.9 | 16.1 | 0.00 | 0.00 | 0.00 | 67 | 1015.6 |
| 20260906045217 | 23 | 148 | 4.8 | 12.9 | 0.00 | 0.00 | 0.00 | 66 | 1015.6 |
| 20260906044714 | 23 | 154 | 9.7 | 14.5 | 0.00 | 0.00 | 0.00 | 66 | 1015.5 |
| 20260906044211 | 23 | 133 | 9.7 | 14.5 | 0.00 | 0.00 | 0.00 | 66 | 1015.6 |
| 20260906043727 | 24 | 148 | 9.7 | 16.1 | 0.00 | 0.00 | 0.00 | 66 | 1015.6 |
| 20260906043224 | 24 | 148 | 9.7 | 24.1 | 0.00 | 0.00 | 0.00 | 66 | 1015.7 |
| 20260906042724 | 23 | 177 | 16.1 | 24.1 | 0.00 | 0.00 | 0.00 | 66 | 1015.6 |
| 20260906042222 | 23 | 138 | 14.5 | 19.3 | 0.00 | 0.00 | 0.00 | 66 | 1015.6 |
| 20260906041718 | 23 | 144 | 16.1 | 19.3 | 0.00 | 0.00 | 0.00 | 66 | 1015.7 |
| 20260906041214 | 23 | 143 | 16.1 | 19.3 | 0.00 | 0.00 | 0.00 | 66 | 1015.7 |
| 20260906040731 | 23 | 144 | 16.1 | 17.7 | 0.00 | 0.00 | 0.00 | 66 | 1015.6 |
| 20260906040227 | 24 | 141 | 14.5 | 17.7 | 0.00 | 0.00 | 0.00 | 65 | 1015.8 |
| 20260906035722 | 24 | 136 | 14.5 | 16.1 | 0.00 | 0.00 | 0.00 | 64 | 1015.8 |
| 20260906035220 | 24 | 132 | 12.9 | 16.1 | 0.00 | 0.00 | 0.00 | 64 | 1015.7 |
| 20260906034741 | 25 | 360 | 12.9 | 17.7 | 0.00 | 0.00 | 0.00 | 63 | 1015.7 |
| 20260906034217 | 25 | 130 | 14.5 | 17.7 | 0.00 | 0.00 | 0.00 | 62 | 1015.7 |
| 20260906033713 | 25 | 360 | 12.9 | 16.1 | 0.00 | 0.00 | 0.00 | 62 | 1015.5 |
| 20260906033210 | 25 | 143 | 12.9 | 17.7 | 0.00 | 0.00 | 0.00 | 62 | 1015.5 |
| 20260906032727 | 25 | 160 | 14.5 | 17.7 | 0.00 | 0.00 | 0.00 | 62 | 1015.4 |
| 20260906032224 | 25 | 166 | 14.5 | 17.7 | 0.00 | 0.00 | 0.00 | 61 | 1015.4 |
| 20260906031721 | 25 | 145 | 16.1 | 17.7 | 0.00 | 0.00 | 0.00 | 61 | 1015.4 |
| 20260906031239 | 26 | 150 | 14.5 | 19.3 | 0.00 | 0.00 | 0.00 | 60 | 1015.4 |
| 20260906030717 | 26 | 151 | 16.1 | 22.5 | 0.00 | 0.00 | 0.00 | 60 | 1015.4 |
| 20260906030215 | 26 | 155 | 14.5 | 19.3 | 0.00 | 0.00 | 0.00 | 59 | 1015.4 |
| 20260906025711 | 26 | 158 | 12.9 | 16.1 | 0.00 | 0.00 | 0.00 | 59 | 1015.3 |
| 20260906025249 | 26 | 142 | 12.9 | 16.1 | 0.00 | 0.00 | 0.00 | 58 | 1015.3 |
| 20260906024724 | 26 | 138 | 14.5 | 19.3 | 0.00 | 0.00 | 0.00 | 58 | 1015.3 |
| 20260906024220 | 27 | 148 | 16.1 | 22.5 | 0.00 | 0.00 | 0.00 | 57 | 1015.2 |
| 20260906023717 | 27 | 142 | 17.7 | 25.7 | 0.00 | 0.00 | 0.00 | 57 | 1015.2 |
| 20260906023235 | 27 | 154 | 20.9 | 27.4 | 0.00 | 0.00 | 0.00 | 57 | 1015.1 |
| 20260906022730 | 27 | 146 | 22.5 | 30.6 | 0.00 | 0.00 | 0.00 | 57 | 1015.1 |
| 20260906022210 | 27 | 149 | 22.5 | 27.4 | 0.00 | 0.00 | 0.00 | 57 | 1015.0 |
| 20260906021728 | 27 | 159 | 22.5 | 27.4 | 0.00 | 0.00 | 0.00 | 57 | 1015.1 |
| 20260906021225 | 27 | 165 | 22.5 | 29.0 | 0.00 | 0.00 | 0.00 | 57 | 1015.1 |
| 20260906020721 | 27 | 158 | 17.7 | 25.7 | 0.00 | 0.00 | 0.00 | 57 | 1015.0 |
| 20260906020218 | 27 | 167 | 14.5 | 24.1 | 0.00 | 0.00 | 0.00 | 57 | 1015.0 |
| 20260906015715 | 27 | 158 | 17.7 | 24.1 | 0.00 | 0.00 | 0.00 | 57 | 1015.0 |
| 20260906015212 | 27 | 164 | 16.1 | 19.3 | 0.00 | 0.00 | 0.00 | 56 | 1014.9 |
| 20260906014713 | 27 | 180 | 9.7 | 17.7 | 0.00 | 0.00 | 0.00 | 55 | 1014.9 |
| 20260906014210 | 27 | 146 | 14.5 | 16.1 | 0.00 | 0.00 | 0.00 | 54 | 1014.9 |
| 20260906013728 | 27 | 160 | 14.5 | 17.7 | 0.00 | 0.00 | 0.00 | 53 | 1014.8 |
| 20260906013224 | 27 | 360 | 11.3 | 17.7 | 0.00 | 0.00 | 0.00 | 50 | 1014.7 |
| 20260906012720 | 28 | 360 | 8.0 | 12.9 | 0.00 | 0.00 | 0.00 | 48 | 1014.7 |
| 20260906012218 | 28 | 360 | 4.8 | 6.4 | 0.00 | 0.00 | 0.00 | 47 | 1014.6 |
| 20260906011714 | 28 | 360 | 1.6 | 3.2 | 0.00 | 0.00 | 0.00 | 46 | 1014.6 |
| 20260906011214 | 29 | 12 | 0.0 | 6.4 | 0.00 | 0.00 | 0.00 | 46 | 1014.5 |
| 20260906010711 | 29 | 188 | 1.6 | 6.4 | 0.00 | 0.00 | 0.00 | 45 | 1014.4 |
| 20260906010228 | 29 | 360 | 1.6 | 6.4 | 0.00 | 0.00 | 0.00 | 45 | 1014.3 |
| 20260906005724 | 29 | 194 | 3.2 | 11.3 | 0.00 | 0.00 | 0.00 | 44 | 1014.2 |
| 20260906005220 | 29 | 194 | 6.4 | 11.3 | 0.00 | 0.00 | 0.00 | 44 | 1014.2 |
| 20260906004717 | 29 | 360 | 3.2 | 14.5 | 0.00 | 0.00 | 0.00 | 45 | 1014.1 |
| 20260906004214 | 29 | 360 | 4.8 | 16.1 | 0.00 | 0.00 | 0.00 | 45 | 1014.0 |
| 20260906003715 | 29 | 360 | 8.0 | 17.7 | 0.00 | 0.00 | 0.00 | 45 | 1014.0 |
| 20260906003212 | 30 | 360 | 9.7 | 17.7 | 0.00 | 0.00 | 0.00 | 45 | 1013.9 |
| 20260906002749 | 30 | 360 | 8.0 | 17.7 | 0.00 | 0.00 | 0.00 | 44 | 1013.7 |
| 20260906002224 | 30 | 360 | 11.3 | 17.7 | 0.00 | 0.00 | 0.00 | 44 | 1013.8 |
| 20260906001741 | 30 | 360 | 8.0 | 17.7 | 0.00 | 0.00 | 0.00 | 44 | 1013.7 |
| 20260906001238 | 30 | 192 | 11.3 | 17.7 | 0.00 | 0.00 | 0.00 | 42 | 1013.7 |
| 20260906000713 | 31 | 360 | 6.4 | 14.5 | 0.00 | 0.00 | 0.00 | 41 | 1013.7 |
| 20260906000212 | 30 | 360 | 4.8 | 12.9 | 0.00 | 0.00 | 0.00 | 40 | 1013.7 |
| 20260905235711 | 30 | 150 | 3.2 | 12.9 | 0.00 | 0.00 | 0.00 | 39 | 1013.7 |
| 20260905235228 | 30 | 201 | 3.2 | 12.9 | 0.00 | 0.00 | 0.00 | 38 | 1013.8 |
| 20260905234725 | 30 | 360 | 6.4 | 12.9 | 0.00 | 0.00 | 0.00 | 38 | 1013.6 |
| 20260905234222 | 31 | 360 | 8.0 | 16.1 | 0.00 | 0.00 | 0.00 | 37 | 1013.5 |
| 20260905233740 | 31 | 360 | 12.9 | 16.1 | 0.00 | 0.00 | 0.00 | 37 | 1013.6 |
| 20260905233214 | 31 | 360 | 11.3 | 19.3 | 0.00 | 0.00 | 0.00 | 36 | 1013.6 |
| 20260905232711 | 31 | 360 | 16.1 | 19.3 | 0.00 | 0.00 | 0.00 | 34 | 1013.5 |
| 20260905232228 | 31 | 360 | 16.1 | 22.5 | 0.00 | 0.00 | 0.00 | 34 | 1013.5 |
| 20260905231745 | 31 | 150 | 11.3 | 16.1 | 0.00 | 0.00 | 0.00 | 35 | 1013.5 |
| 20260905231245 | 31 | 215 | 4.8 | 16.1 | 0.00 | 0.00 | 0.00 | 38 | 1013.6 |
| 20260905230721 | 31 | 229 | 4.8 | 12.9 | 0.00 | 0.00 | 0.00 | 38 | 1013.6 |
| 20260905230218 | 31 | 181 | 3.2 | 9.7 | 0.00 | 0.00 | 0.00 | 41 | 1013.4 |
| 20260905225715 | 31 | 215 | 4.8 | 14.5 | 0.00 | 0.00 | 0.00 | 39 | 1013.5 |
| 20260905225212 | 31 | 234 | 9.7 | 17.7 | 0.00 | 0.00 | 0.00 | 38 | 1013.5 |
| 20260905224729 | 31 | 360 | 12.9 | 19.3 | 0.00 | 0.00 | 0.00 | 39 | 1013.7 |
| 20260905224226 | 30 | 360 | 8.0 | 16.1 | 0.00 | 0.00 | 0.00 | 40 | 1013.7 |
| 20260905223728 | 30 | 360 | 6.4 | 14.5 | 0.00 | 0.00 | 0.00 | 41 | 1013.9 |
| 20260905223224 | 30 | 360 | 8.0 | 16.1 | 0.00 | 0.00 | 0.00 | 41 | 1013.9 |
| 20260905222740 | 30 | 360 | 9.7 | 16.1 | 0.00 | 0.00 | 0.00 | 41 | 1013.8 |
| 20260905222216 | 30 | 360 | 6.4 | 11.3 | 0.00 | 0.00 | 0.00 | 41 | 1013.7 |
| 20260905221713 | 30 | 360 | 3.2 | 12.9 | 0.00 | 0.00 | 0.00 | 41 | 1013.7 |
| 20260905221250 | 30 | 360 | 8.0 | 16.1 | 0.00 | 0.00 | 0.00 | 41 | 1013.7 |
| 20260905220726 | 31 | 360 | 8.0 | 17.7 | 0.00 | 0.00 | 0.00 | 40 | 1013.7 |
| 20260905220223 | 31 | 360 | 9.7 | 16.1 | 0.00 | 0.00 | 0.00 | 38 | 1013.7 |
| 20260905215719 | 32 | 225 | 4.8 | 22.5 | 0.00 | 0.00 | 0.00 | 35 | 1013.6 |
| 20260905215220 | 32 | 360 | 14.5 | 22.5 | 0.00 | 0.00 | 0.00 | 33 | 1013.5 |
| 20260905214717 | 32 | 360 | 16.1 | 20.9 | 0.00 | 0.00 | 0.00 | 33 | 1013.4 |
| 20260905214214 | 31 | 159 | 14.5 | 19.3 | 0.00 | 0.00 | 0.00 | 33 | 1013.4 |
| 20260905213711 | 32 | 360 | 14.5 | 19.3 | 0.00 | 0.00 | 0.00 | 32 | 1013.5 |
| 20260905213228 | 32 | 360 | 12.9 | 19.3 | 0.00 | 0.00 | 0.00 | 31 | 1013.6 |
| 20260905212724 | 32 | 162 | 16.1 | 20.9 | 0.00 | 0.00 | 0.00 | 31 | 1013.9 |
| 20260905212220 | 32 | 360 | 17.7 | 24.1 | 0.00 | 0.00 | 0.00 | 30 | 1013.9 |
| 20260905211720 | 32 | 144 | 19.3 | 25.7 | 0.00 | 0.00 | 0.00 | 30 | 1014.0 |
| 20260905211217 | 32 | 360 | 19.3 | 29.0 | 0.00 | 0.00 | 0.00 | 30 | 1014.1 |
| 20260905210714 | 32 | 360 | 22.5 | 29.0 | 0.00 | 0.00 | 0.00 | 30 | 1014.2 |